DB0TGO-14 Weather Reports


Display with metric or nautical units.
time (UTC)temp
F
wind
direction
speed
MPH
gust
MPH
rain 1hr
in
rain 24hr
in
rain mn
in
humidity
%
barometer
mb
20260505002000 59 68 3.0 5.0 0.00 0.00 0.00 81 1011.9
20260505001820 59 90 3.0 5.0 0.00 0.00 0.00 81 1011.9
20260505001625 59 68 3.0 5.0 0.00 0.00 0.00 81 1011.9
20260505001435 59 68 3.0 5.0 0.00 0.00 0.00 81 1011.9
20260505001235 59 68 2.0 5.0 0.00 0.00 0.00 81 1011.9
20260505001035 59 68 2.0 4.0 0.00 0.00 0.00 81 1011.9
20260505000844 59 68 2.0 4.0 0.00 0.00 0.00 81 1012.0
20260505000655 59 68 2.0 4.0 0.00 0.00 0.00 81 1012.0
20260505000507 59 90 2.0 4.0 0.00 0.00 0.00 81 1012.0
20260505000452 59 90 2.0 4.0 0.00 0.00 0.00 81 1012.1
20260505000329 59 90 2.0 4.0 0.00 0.00 0.00 81 1012.0
20260505000145 59 90 2.0 4.0 0.00 0.00 0.00 81 1012.0
20260505000000 59 90 3.0 4.0 0.00 0.00 0.00 81 1012.1
20260504235812 59 90 3.0 5.0 0.00 0.00 0.00 81 1012.0
20260504235630 59 68 3.0 7.0 0.00 0.00 0.00 81 1012.1
20260504235435 59 68 3.0 7.0 0.00 0.00 0.00 81 1012.1
20260504235257 59 68 3.0 7.0 0.00 0.00 0.00 81 1012.1
20260504235105 59 68 2.0 5.0 0.00 0.00 0.00 81 1012.1
20260504234905 59 68 2.0 5.0 0.00 0.00 0.00 81 1012.1
20260504234747 59 90 2.0 5.0 0.00 0.00 0.00 81 1012.1
20260504234725 59 68 2.0 5.0 0.00 0.00 0.00 81 1012.1
20260504234542 59 68 2.0 5.0 0.00 0.00 0.00 81 1012.1
20260504234400 59 68 2.0 5.0 0.00 0.00 0.00 81 1012.1
20260504234215 59 68 2.0 5.0 0.00 0.00 0.00 81 1012.1
20260504234034 59 90 2.0 5.0 0.00 0.00 0.00 82 1012.0
20260504233844 59 90 2.0 5.0 0.00 0.00 0.00 81 1012.1
20260504233705 59 90 2.0 5.0 0.00 0.00 0.00 81 1012.0
20260504233505 59 90 2.0 5.0 0.00 0.00 0.00 81 1012.1
20260504233311 59 90 3.0 5.0 0.00 0.00 0.00 81 1012.0
20260504233115 59 90 3.0 5.0 0.00 0.00 0.00 81 1012.1
20260504232925 59 90 3.0 5.0 0.00 0.00 0.00 81 1012.1
20260504232740 59 90 3.0 5.0 0.00 0.00 0.00 81 1012.1
20260504232600 59 90 3.0 5.0 0.00 0.00 0.00 81 1012.1
20260504232405 59 90 3.0 5.0 0.00 0.00 0.00 80 1012.2
20260504232217 59 68 2.0 5.0 0.00 0.00 0.00 80 1012.1
20260504232018 59 68 2.0 5.0 0.00 0.00 0.00 80 1012.2
20260504231840 59 68 2.0 5.0 0.00 0.00 0.00 80 1012.2
20260504231640 59 68 2.0 3.0 0.00 0.00 0.00 81 1012.3
20260504231505 60 68 2.0 4.0 0.00 0.00 0.00 81 1012.3
20260504231407 60 68 2.0 4.0 0.00 0.00 0.00 81 1012.2
20260504231306 60 68 2.0 4.0 0.00 0.00 0.00 80 1012.4
20260504231129 60 68 2.0 5.0 0.00 0.00 0.00 80 1012.3
20260504230945 60 68 2.0 5.0 0.00 0.00 0.00 80 1012.3
20260504230755 60 68 2.0 5.0 0.00 0.00 0.00 80 1012.3
20260504230605 60 68 2.0 5.0 0.00 0.00 0.00 81 1012.3
20260504230403 60 68 2.0 5.0 0.00 0.00 0.00 80 1012.4
20260504230210 60 90 2.0 3.0 0.00 0.00 0.00 81 1012.3
20260504230025 60 90 2.0 3.0 0.00 0.00 0.00 81 1012.4
20260504225830 60 90 2.0 4.0 0.00 0.00 0.00 80 1012.4
20260504225640 60 90 2.0 4.0 0.00 0.00 0.00 80 1012.3
20260504225527 60 90 2.0 4.0 0.00 0.00 0.00 80 1012.5
20260504225500 60 90 2.0 4.0 0.00 0.00 0.00 80 1012.5
20260504225310 60 90 1.0 2.0 0.00 0.00 0.00 80 1012.4
20260504225124 60 90 1.0 2.0 0.00 0.00 0.00 80 1012.5
20260504224945 60 90 1.0 2.0 0.00 0.00 0.00 80 1012.6
20260504224745 60 90 1.0 2.0 0.00 0.00 0.00 80 1012.4
20260504224549 60 90 1.0 2.0 0.00 0.00 0.00 80 1012.4
20260504224400 60 90 2.0 5.0 0.00 0.00 0.00 80 1012.4
20260504224205 60 90 2.0 5.0 0.00 0.00 0.00 80 1012.4
20260504224020 60 90 2.0 5.0 0.00 0.00 0.00 80 1012.5
20260504223830 60 45 2.0 4.0 0.00 0.00 0.00 80 1012.5
20260504223630 59 45 2.0 5.0 0.00 0.00 0.00 80 1012.5
20260504223450 59 45 2.0 5.0 0.00 0.00 0.00 80 1012.5
20260504223308 59 68 2.0 5.0 0.00 0.00 0.00 80 1012.5
20260504223120 59 68 2.0 5.0 0.00 0.00 0.00 81 1012.5
20260504222929 59 45 1.0 3.0 0.00 0.00 0.00 81 1012.4
20260504222740 59 45 1.0 3.0 0.00 0.00 0.00 81 1012.4
20260504222600 59 45 1.0 5.0 0.00 0.00 0.00 81 1012.4
20260504222418 59 45 1.0 5.0 0.00 0.00 0.00 81 1012.5
20260504222230 59 45 1.0 5.0 0.00 0.00 0.00 81 1012.5
20260504222050 59 45 1.0 2.0 0.00 0.00 0.00 81 1012.5
20260504222012 59 45 1.0 2.0 0.00 0.00 0.00 81 1012.5
20260504221910 59 45 0.0 2.0 0.00 0.00 0.00 81 1012.5
20260504221718 59 45 0.0 3.0 0.00 0.00 0.00 81 1012.5
20260504221542 59 45 1.0 3.0 0.00 0.00 0.00 81 1012.6
20260504221400 59 45 0.0 3.0 0.00 0.00 0.00 80 1012.6
20260504221200 59 45 0.0 2.0 0.00 0.00 0.00 80 1012.5
20260504221020 60 45 0.0 2.0 0.00 0.00 0.00 80 1012.6
20260504220831 60 45 0.0 3.0 0.00 0.00 0.00 80 1012.5
20260504220655 60 45 1.0 3.0 0.00 0.00 0.00 80 1012.6
20260504220510 60 45 1.0 3.0 0.00 0.00 0.00 79 1012.6
20260504220330 60 45 1.0 2.0 0.00 0.00 0.00 79 1012.6
20260504220130 60 45 1.0 5.0 0.00 0.00 0.00 79 1012.6
20260504215947 60 45 1.0 5.0 0.00 0.00 0.00 79 1012.6
20260504215750 60 45 1.0 5.0 0.00 0.00 0.00 79 1012.6
20260504215552 60 45 1.0 4.0 0.00 0.00 0.00 79 1012.6
20260504215415 60 45 1.0 4.0 0.00 0.00 0.00 78 1012.6
20260504215225 60 45 1.0 4.0 0.00 0.00 0.00 78 1012.6
20260504215028 60 45 0.0 2.0 0.00 0.00 0.00 78 1012.6
20260504214838 60 45 0.0 2.0 0.00 0.00 0.00 78 1012.6
20260504214645 60 22 0.0 1.0 0.00 0.00 0.00 78 1012.6
20260504214500 60 22 1.0 1.0 0.00 0.00 0.00 77 1012.7
20260504214428 60 22 1.0 2.0 0.00 0.00 0.00 77 1012.6
20260504214310 61 22 1.0 2.0 0.00 0.00 0.00 77 1012.7
20260504214120 61 22 1.0 2.0 0.00 0.00 0.00 76 1012.6
20260504213945 61 22 1.0 2.0 0.00 0.00 0.00 76 1012.7
20260504213744 61 22 1.0 2.0 0.00 0.00 0.00 76 1012.7
20260504213545 61 22 1.0 2.0 0.00 0.00 0.00 76 1012.7
20260504213348 61 22 2.0 2.0 0.00 0.00 0.00 75 1012.7
20260504213150 61 22 2.0 2.0 0.00 0.00 0.00 75 1012.7
20260504212959 61 22 2.0 5.0 0.00 0.00 0.00 75 1012.7
20260504212756 61 0 2.0 5.0 0.00 0.00 0.00 74 1012.8
20260504212612 61 45 2.0 5.0 0.00 0.00 0.00 74 1012.8
20260504212415 62 45 2.0 4.0 0.00 0.00 0.00 74 1012.8
20260504212225 62 68 2.0 4.0 0.00 0.00 0.00 74 1012.6
20260504212028 62 68 2.0 5.0 0.00 0.00 0.00 74 1012.7
20260504211830 62 45 1.0 5.0 0.00 0.00 0.00 74 1012.8
20260504211630 62 45 1.0 5.0 0.00 0.00 0.00 74 1012.8
20260504211441 62 45 1.0 2.0 0.00 0.00 0.00 74 1012.8
20260504211255 62 45 1.0 2.0 0.00 0.00 0.00 73 1012.8
20260504211221 62 45 1.0 2.0 0.00 0.00 0.00 73 1012.8
20260504211103 62 45 1.0 2.0 0.00 0.00 0.00 73 1012.9
20260504210908 62 45 1.0 4.0 0.00 0.00 0.00 73 1012.7
20260504210720 62 45 1.0 4.0 0.00 0.00 0.00 73 1012.8
20260504210540 62 45 1.0 4.0 0.00 0.00 0.00 72 1012.9
20260504210350 62 45 1.0 4.0 0.00 0.00 0.00 72 1012.8
20260504210215 62 45 1.0 3.0 0.00 0.00 0.00 72 1012.8
20260504210025 62 45 1.0 2.0 0.00 0.00 0.00 72 1012.9
20260504205845 62 45 2.0 2.0 0.00 0.00 0.00 72 1012.8
20260504205655 62 45 2.0 3.0 0.00 0.00 0.00 71 1012.8
20260504205500 62 45 2.0 5.0 0.00 0.00 0.00 71 1012.7
20260504205331 62 45 2.0 5.0 0.00 0.00 0.00 71 1012.7
20260504205305 62 45 2.0 5.0 0.00 0.00 0.00 71 1012.8
20260504205120 62 68 2.0 5.0 0.00 0.00 0.00 71 1012.8
20260504204937 62 22 1.0 5.0 0.00 0.00 0.00 71 1012.6
20260504204750 62 45 1.0 2.0 0.00 0.00 0.00 71 1012.7
20260504204555 63 45 2.0 3.0 0.00 0.00 0.00 71 1012.7
20260504204400 63 45 2.0 3.0 0.00 0.00 0.00 71 1012.8
20260504204220 63 22 2.0 3.0 0.00 0.00 0.00 71 1012.7
20260504204037 63 22 2.0 3.0 0.00 0.00 0.00 70 1012.7
20260504203840 63 22 2.0 4.0 0.00 0.00 0.00 70 1012.8
20260504203651 63 22 2.0 4.0 0.00 0.00 0.00 70 1012.7
20260504203606 63 22 2.0 4.0 0.00 0.00 0.00 70 1012.8
20260504203515 63 45 2.0 4.0 0.00 0.00 0.00 71 1012.8
20260504203330 63 45 1.0 3.0 0.00 0.00 0.00 70 1012.8
20260504203140 63 45 1.0 3.0 0.00 0.00 0.00 71 1012.8
20260504202945 63 45 1.0 3.0 0.00 0.00 0.00 70 1012.8
20260504202805 63 45 1.0 3.0 0.00 0.00 0.00 71 1012.8
20260504202604 63 22 0.0 2.0 0.00 0.00 0.00 70 1012.8
20260504202413 63 22 1.0 2.0 0.00 0.00 0.00 70 1012.8
20260504202230 63 22 1.0 2.0 0.00 0.00 0.00 70 1012.7
20260504202048 63 22 1.0 3.0 0.00 0.00 0.00 70 1012.8
20260504202012 63 22 1.0 3.0 0.00 0.00 0.00 70 1012.8
20260504201910 63 22 1.0 3.0 0.00 0.00 0.00 70 1012.7
20260504201730 63 22 1.0 3.0 0.00 0.00 0.00 70 1012.8
20260504201535 63 22 1.0 2.0 0.00 0.00 0.00 70 1012.7
20260504201341 63 22 1.0 2.0 0.00 0.00 0.00 70 1012.7
20260504201203 63 22 1.0 2.0 0.00 0.00 0.00 70 1012.7
20260504201015 63 45 1.0 2.0 0.00 0.00 0.00 70 1012.6
20260504200819 63 45 1.0 2.0 0.00 0.00 0.00 70 1012.7
20260504200618 63 45 1.0 3.0 0.00 0.00 0.00 70 1012.7
20260504200422 63 45 1.0 3.0 0.00 0.00 0.00 70 1012.7
20260504200240 63 45 1.0 3.0 0.00 0.00 0.00 70 1012.7
20260504200150 63 45 1.0 3.0 0.00 0.00 0.00 69 1012.6
20260504200045 63 45 1.0 3.0 0.00 0.00 0.00 69 1012.7
20260504195900 63 45 1.0 2.0 0.00 0.00 0.00 70 1012.7
20260504195705 63 45 1.0 2.0 0.00 0.00 0.00 70 1012.6
20260504195522 63 0 1.0 5.0 0.00 0.00 0.00 71 1012.7
20260504195345 63 0 0.0 5.0 0.00 0.00 0.00 71 1012.7
20260504195150 63 0 0.0 5.0 0.00 0.00 0.00 71 1012.6
20260504194950 63 0 0.0 0.0 0.00 0.00 0.00 72 1012.7
20260504194800 63 0 0.0 1.0 0.00 0.00 0.00 72 1012.6
20260504194618 63 0 0.0 0.0 0.00 0.00 0.00 72 1012.6
20260504194423 63 0 0.0 0.0 0.00 0.00 0.00 72 1012.6
20260504194342 63 0 0.0 0.0 0.00 0.00 0.00 72 1012.6
20260504194230 63 0 0.0 0.0 0.00 0.00 0.00 72 1012.6
20260504194041 63 0 0.0 0.0 0.00 0.00 0.00 72 1012.6
20260504193855 63 0 0.0 0.0 0.00 0.00 0.00 73 1012.6
20260504193705 63 0 0.0 0.0 0.00 0.00 0.00 72 1012.5
20260504193505 63 0 0.0 0.0 0.00 0.00 0.00 71 1012.6
20260504193310 64 0 0.0 0.0 0.00 0.00 0.00 71 1012.6
20260504193115 64 0 0.0 0.0 0.00 0.00 0.00 71 1012.6
20260504192918 64 0 0.0 0.0 0.00 0.00 0.00 71 1012.6
20260504192742 64 0 0.0 0.0 0.00 0.00 0.00 70 1012.6
20260504192536 64 0 0.0 0.0 0.00 0.00 0.00 69 1012.5
20260504192348 64 0 0.0 0.0 0.00 0.00 0.00 69 1012.6
20260504192211 64 0 0.0 0.0 0.00 0.00 0.00 69 1012.5
20260504192017 64 0 0.0 0.0 0.00 0.00 0.00 69 1012.4
20260504191840 65 0 0.0 0.0 0.00 0.00 0.00 69 1012.4
20260504191700 65 0 0.0 0.0 0.00 0.00 0.00 68 1012.5
20260504191515 65 0 0.0 0.0 0.00 0.00 0.00 68 1012.5
20260504191337 65 0 0.0 0.0 0.00 0.00 0.00 68 1012.5
20260504191144 65 0 0.0 0.0 0.00 0.00 0.00 68 1012.5
20260504191008 65 0 0.0 0.0 0.00 0.00 0.00 68 1012.5
20260504190820 65 0 0.0 0.0 0.00 0.00 0.00 67 1012.6
20260504190640 65 0 0.0 0.0 0.00 0.00 0.00 67 1012.4
20260504190455 65 0 0.0 0.0 0.00 0.00 0.00 67 1012.5
20260504190255 66 0 0.0 0.0 0.00 0.00 0.00 67 1012.5
20260504190115 66 0 0.0 2.0 0.00 0.00 0.00 67 1012.5
20260504185938 66 0 0.0 0.0 0.00 0.00 0.00 66 1012.4
20260504185751 66 0 0.0 0.0 0.00 0.00 0.00 66 1012.4
20260504185555 66 0 0.0 0.0 0.00 0.00 0.00 66 1012.5
20260504185410 66 0 0.0 0.0 0.00 0.00 0.00 66 1012.4
20260504185211 66 0 0.0 0.0 0.00 0.00 0.00 65 1012.5
20260504185155 66 0 0.0 0.0 0.00 0.00 0.00 65 1012.4
20260504185020 67 0 0.0 0.0 0.00 0.00 0.00 65 1012.5
20260504184840 67 0 0.0 0.0 0.00 0.00 0.00 65 1012.5
20260504184655 67 0 0.0 1.0 0.00 0.00 0.00 65 1012.4
20260504184502 67 0 0.0 1.0 0.00 0.00 0.00 65 1012.5
20260504184320 67 0 0.0 1.0 0.00 0.00 0.00 65 1012.4
20260504184135 67 0 0.0 1.0 0.00 0.00 0.00 65 1012.4
20260504183955 67 0 0.0 0.0 0.00 0.00 0.00 65 1012.5
20260504183802 68 0 0.0 0.0 0.00 0.00 0.00 64 1012.5
20260504183610 68 0 0.0 0.0 0.00 0.00 0.00 64 1012.5
20260504183424 68 0 0.0 0.0 0.00 0.00 0.00 63 1012.5
20260504183346 68 0 0.0 0.0 0.00 0.00 0.00 63 1012.4
20260504183230 68 0 0.0 0.0 0.00 0.00 0.00 63 1012.4
20260504183031 68 0 0.0 0.0 0.00 0.00 0.00 63 1012.4
20260504182840 68 0 0.0 0.0 0.00 0.00 0.00 62 1012.4
20260504182650 69 0 0.0 0.0 0.00 0.00 0.00 62 1012.3
20260504182500 69 0 0.0 0.0 0.00 0.00 0.00 61 1012.4
20260504182305 69 0 0.0 0.0 0.00 0.00 0.00 61 1012.4
20260504182125 69 0 0.0 0.0 0.00 0.00 0.00 61 1012.4
20260504181930 69 0 0.0 0.0 0.00 0.00 0.00 60 1012.3
20260504181740 69 0 0.0 0.0 0.00 0.00 0.00 60 1012.4
20260504181540 70 0 0.0 1.0 0.00 0.00 0.00 60 1012.4
20260504181456 70 0 0.0 1.0 0.00 0.00 0.00 60 1012.4
20260504181343 70 0 0.0 1.0 0.00 0.00 0.00 59 1012.5
20260504181204 70 0 0.0 0.0 0.00 0.00 0.00 59 1012.4
20260504181020 70 0 0.0 0.0 0.00 0.00 0.00 58 1012.3
20260504180840 70 0 0.0 0.0 0.00 0.00 0.00 58 1012.3
20260504180648 71 45 0.0 0.0 0.00 0.00 0.00 58 1012.3
20260504180500 71 45 1.0 1.0 0.00 0.00 0.00 57 1012.3
20260504180310 71 45 1.0 1.0 0.00 0.00 0.00 57 1012.3
20260504180125 71 45 1.0 5.0 0.00 0.00 0.00 57 1012.3
20260504175941 71 45 1.0 5.0 0.00 0.00 0.00 56 1012.3
20260504175750 72 45 1.0 5.0 0.00 0.00 0.00 56 1012.3
20260504175605 72 292 1.0 2.0 0.00 0.00 0.00 56 1012.3
20260504175410 72 292 1.0 2.0 0.00 0.00 0.00 56 1012.3
20260504175220 72 270 1.0 2.0 0.00 0.00 0.00 55 1012.2
20260504175029 73 270 1.0 2.0 0.00 0.00 0.00 54 1012.3
20260504174844 73 270 2.0 5.0 0.00 0.00 0.00 54 1012.2
20260504174645 74 270 2.0 5.0 0.00 0.00 0.00 54 1012.2
20260504174442 74 68 2.0 5.0 0.00 0.00 0.00 53 1012.1
20260504174300 74 315 2.0 3.0 0.00 0.00 0.00 53 1012.2
20260504174223 74 315 2.0 3.0 0.00 0.00 0.00 53 1012.2
20260504174114 74 248 2.0 6.0 0.00 0.00 0.00 53 1012.2
20260504173920 75 270 2.0 6.0 0.00 0.00 0.00 51 1012.2
20260504173730 75 22 2.0 6.0 0.00 0.00 0.00 51 1012.1
20260504173535 75 315 1.0 4.0 0.00 0.00 0.00 50 1012.1
20260504173355 75 45 1.0 4.0 0.00 0.00 0.00 50 1012.2
20260504173215 74 45 2.0 5.0 0.00 0.00 0.00 50 1012.2
20260504173025 74 270 2.0 5.0 0.00 0.00 0.00 51 1012.2
20260504172841 75 45 2.0 5.0 0.00 0.00 0.00 51 1012.2
20260504172655 75 292 2.0 5.0 0.00 0.00 0.00 50 1012.1
20260504172520 74 338 2.0 5.0 0.00 0.00 0.00 51 1012.2
20260504172455 74 338 2.0 5.0 0.00 0.00 0.00 51 1012.2
20260504172300 74 45 2.0 5.0 0.00 0.00 0.00 51 1012.1
20260504172115 74 292 2.0 5.0 0.00 0.00 0.00 52 1012.2
20260504171930 74 292 2.0 5.0 0.00 0.00 0.00 51 1012.2
20260504171750 74 45 2.0 5.0 0.00 0.00 0.00 51 1012.1
20260504171605 74 0 3.0 5.0 0.00 0.00 0.00 51 1012.2
20260504171415 74 338 2.0 4.0 0.00 0.00 0.00 51 1012.2
20260504171225 74 338 3.0 5.0 0.00 0.00 0.00 52 1012.2
20260504171033 74 315 3.0 5.0 0.00 0.00 0.00 53 1012.1
20260504170957 74 292 3.0 5.0 0.00 0.00 0.00 53 1012.1
20260504170855 75 292 3.0 5.0 0.00 0.00 0.00 53 1012.2
20260504170700 75 292 2.0 5.0 0.00 0.00 0.00 52 1012.2
20260504170500 75 338 2.0 5.0 0.00 0.00 0.00 51 1012.2
20260504170310 75 338 3.0 6.0 0.00 0.00 0.00 50 1012.1
20260504170130 75 68 3.0 6.0 0.00 0.00 0.00 50 1012.1
20260504160420 73 315 4.0 5.0 0.00 0.00 0.00 49 1012.1
20260504160225 72 248 4.0 5.0 0.00 0.00 0.00 51 1012.2
20260504151126 75 292 4.0 7.0 0.00 0.00 0.00 50 1012.2
20260504151101 75 270 4.0 7.0 0.00 0.00 0.00 50 1012.2
20260504150925 75 270 4.0 6.0 0.00 0.00 0.00 50 1012.3
20260504150728 75 292 4.0 7.0 0.00 0.00 0.00 49 1012.3
20260504150548 75 292 4.0 7.0 0.00 0.00 0.00 49 1012.3
20260504150359 75 292 4.0 7.0 0.00 0.00 0.00 48 1012.3
20260504150215 74 270 3.0 6.0 0.00 0.00 0.00 47 1012.3
20260504141300 73 248 5.0 10.0 0.00 0.00 0.00 53 1012.8
20260504141110 73 292 4.0 9.0 0.00 0.00 0.00 52 1012.7
20260504140925 74 248 4.0 9.0 0.00 0.00 0.00 53 1012.7
20260504140740 74 225 4.0 9.0 0.00 0.00 0.00 53 1012.7
20260504140637 74 225 4.0 9.0 0.00 0.00 0.00 51 1012.7
20260504140548 74 270 3.0 7.0 0.00 0.00 0.00 50 1012.7
20260504140405 74 292 3.0 6.0 0.00 0.00 0.00 49 1012.7
20260504140225 74 315 4.0 8.0 0.00 0.00 0.00 49 1012.7
20260504130820 71 270 5.0 7.0 0.00 0.00 0.00 60 1012.9
20260504130625 71 270 5.0 7.0 0.00 0.00 0.00 61 1013.0
20260504130431 71 248 5.0 8.0 0.00 0.00 0.00 60 1013.0
20260504130240 71 270 5.0 9.0 0.00 0.00 0.00 60 1013.0
20260504120236 73 248 6.0 10.0 0.00 0.00 0.00 49 1013.0
20260504110644 72 225 6.0 10.0 0.00 0.00 0.00 51 1013.1
20260504110455 72 270 7.0 10.0 0.00 0.00 0.00 52 1013.0
20260504110300 72 225 6.0 11.0 0.00 0.00 0.00 52 1013.1
20260504110110 72 248 6.0 11.0 0.00 0.00 0.00 52 1013.1
20260504100450 70 315 7.0 11.0 0.00 0.00 0.00 56 1013.4
20260504100250 70 248 7.0 11.0 0.00 0.00 0.00 55 1013.6
20260504081949 69 270 5.0 7.0 0.00 0.00 0.00 62 1013.6
20260504081810 68 292 5.0 7.0 0.00 0.00 0.00 64 1013.6
20260504081625 68 292 6.0 10.0 0.00 0.00 0.00 63 1013.4
20260504081435 68 292 6.0 10.0 0.00 0.00 0.00 64 1013.5
20260504081258 68 248 6.0 8.0 0.00 0.00 0.00 63 1013.5
20260504081119 68 225 5.0 9.0 0.00 0.00 0.00 62 1013.5
20260504081029 68 315 6.0 9.0 0.00 0.00 0.00 64 1013.4
20260504080940 68 248 6.0 9.0 0.00 0.00 0.00 65 1013.4
20260504080750 68 270 6.0 10.0 0.00 0.00 0.00 64 1013.5
20260504080600 68 292 6.0 10.0 0.00 0.00 0.00 65 1013.5
20260504080410 67 270 5.0 10.0 0.00 0.00 0.00 63 1013.4
20260504080225 67 225 5.0 9.0 0.00 0.00 0.00 65 1013.4
20260504070335 65 292 5.0 8.0 0.00 0.00 0.00 66 1013.0
20260504070248 65 270 4.0 8.0 0.00 0.00 0.00 66 1013.0
20260504070136 65 270 4.0 8.0 0.00 0.00 0.00 66 1012.9
20260504060210 64 270 5.0 7.0 0.00 0.00 0.00 67 1012.8
20260504050730 62 202 2.0 4.0 0.00 0.00 0.00 67 1012.3
20260504050530 62 202 2.0 5.0 0.00 0.00 0.00 67 1012.4
20260504050344 61 270 2.0 5.0 0.00 0.00 0.00 67 1012.4
20260504050145 62 225 2.0 5.0 0.00 0.00 0.00 67 1012.4
20260504045955 62 225 2.0 5.0 0.00 0.00 0.00 67 1012.3
20260504045755 62 225 2.0 5.0 0.00 0.00 0.00 67 1012.2
20260504045600 62 270 2.0 4.0 0.00 0.00 0.00 67 1012.2
20260504045411 62 270 2.0 4.0 0.00 0.00 0.00 67 1012.2
20260504045223 62 270 2.0 4.0 0.00 0.00 0.00 67 1012.1
20260504045025 62 248 2.0 4.0 0.00 0.00 0.00 67 1012.2
20260504044835 62 225 2.0 5.0 0.00 0.00 0.00 67 1012.1
20260504044655 62 248 2.0 4.0 0.00 0.00 0.00 66 1012.2
20260504044518 62 225 2.0 4.0 0.00 0.00 0.00 66 1012.1
20260504044330 62 225 2.0 4.0 0.00 0.00 0.00 66 1012.1
20260504044145 62 225 2.0 4.0 0.00 0.00 0.00 66 1012.2
20260504044043 62 225 2.0 3.0 0.00 0.00 0.00 66 1012.1
20260504043944 62 225 2.0 5.0 0.00 0.00 0.00 66 1012.1
20260504043748 62 270 2.0 5.0 0.00 0.00 0.00 66 1012.1
20260504043610 62 248 3.0 5.0 0.00 0.00 0.00 66 1012.1
20260504043410 62 225 3.0 5.0 0.00 0.00 0.00 66 1012.1
20260504043224 62 248 3.0 5.0 0.00 0.00 0.00 66 1012.0
20260504043045 62 248 2.0 5.0 0.00 0.00 0.00 65 1012.0
20260504042855 61 225 2.0 5.0 0.00 0.00 0.00 66 1012.0
20260504042710 61 180 2.0 5.0 0.00 0.00 0.00 66 1012.0
20260504042529 61 225 2.0 3.0 0.00 0.00 0.00 67 1011.9
20260504042342 61 225 2.0 3.0 0.00 0.00 0.00 67 1011.9
20260504042304 61 225 2.0 3.0 0.00 0.00 0.00 67 1011.9
20260504042145 61 225 1.0 3.0 0.00 0.00 0.00 67 1011.9
20260504041950 61 225 1.0 3.0 0.00 0.00 0.00 68 1011.8
20260504041757 60 225 1.0 3.0 0.00 0.00 0.00 68 1011.9
20260504041615 60 225 1.0 3.0 0.00 0.00 0.00 69 1011.8
20260504041418 60 225 0.0 3.0 0.00 0.00 0.00 69 1011.8
20260504041229 60 225 0.0 3.0 0.00 0.00 0.00 70 1011.9
20260504041050 60 225 0.0 3.0 0.00 0.00 0.00 71 1011.8
20260504040710 60 0 0.0 0.0 0.00 0.00 0.00 73 1011.8
20260504040530 60 0 0.0 0.0 0.00 0.00 0.00 73 1011.8
20260504040350 60 0 0.0 0.0 0.00 0.00 0.00 73 1011.7
20260504040210 60 0 0.0 0.0 0.00 0.00 0.00 74 1011.7
20260504040010 60 0 0.0 0.0 0.00 0.00 0.00 74 1011.7
20260504035818 60 0 0.0 0.0 0.00 0.00 0.00 74 1011.8
20260504035621 60 0 0.0 0.0 0.00 0.00 0.00 73 1011.7
20260504035444 60 0 0.0 0.0 0.00 0.00 0.00 74 1011.7
20260504035300 60 0 0.0 0.0 0.00 0.00 0.00 73 1011.6
20260504035101 61 0 0.0 0.0 0.00 0.00 0.00 73 1011.8
20260504035035 61 0 0.0 0.0 0.00 0.00 0.00 73 1011.8
20260504034925 61 0 0.0 0.0 0.00 0.00 0.00 73 1011.8
20260504034745 61 0 0.0 0.0 0.00 0.00 0.00 73 1011.7
20260504034600 61 0 0.0 0.0 0.00 0.00 0.00 72 1011.6
20260504034400 61 0 0.0 0.0 0.00 0.00 0.00 71 1011.6
20260504034205 61 0 0.0 0.0 0.00 0.00 0.00 70 1011.7
20260504034030 61 0 0.0 0.0 0.00 0.00 0.00 70 1011.7
20260504033841 61 0 0.0 0.0 0.00 0.00 0.00 69 1011.7
20260504033700 62 0 0.0 0.0 0.00 0.00 0.00 69 1011.6
20260504033520 62 0 0.0 0.0 0.00 0.00 0.00 69 1011.6
20260504033343 62 0 0.0 0.0 0.00 0.00 0.00 67 1011.6
20260504033310 62 0 0.0 0.0 0.00 0.00 0.00 67 1011.7
20260504033148 62 0 0.0 0.0 0.00 0.00 0.00 67 1011.7
20260504033005 62 0 0.0 0.0 0.00 0.00 0.00 66 1011.6
20260504032825 62 0 0.0 0.0 0.00 0.00 0.00 66 1011.6
20260504032635 62 0 0.0 0.0 0.00 0.00 0.00 65 1011.7
20260504032439 62 158 0.0 0.0 0.00 0.00 0.00 65 1011.8
20260504032245 62 158 0.0 0.0 0.00 0.00 0.00 65 1011.8
20260504032105 62 158 0.0 2.0 0.00 0.00 0.00 65 1011.9
20260504031929 62 158 0.0 2.0 0.00 0.00 0.00 65 1011.9
20260504031745 62 158 1.0 2.0 0.00 0.00 0.00 65 1011.8
20260504031657 62 158 1.0 2.0 0.00 0.00 0.00 65 1011.9
20260504031600 62 158 1.0 2.0 0.00 0.00 0.00 65 1011.9
20260504031420 62 158 1.0 1.0 0.00 0.00 0.00 65 1011.9
20260504031228 62 158 2.0 4.0 0.00 0.00 0.00 65 1011.9
20260504031034 62 158 2.0 4.0 0.00 0.00 0.00 65 1012.1
20260504030900 62 158 2.0 4.0 0.00 0.00 0.00 65 1012.2
20260504030700 62 202 1.0 5.0 0.00 0.00 0.00 65 1012.2
20260504030510 62 202 1.0 5.0 0.00 0.00 0.00 65 1012.2
20260504030330 62 202 1.0 5.0 0.00 0.00 0.00 65 1012.1
20260504030130 62 292 0.0 2.0 0.00 0.00 0.00 65 1012.1
20260504025940 62 0 0.0 1.0 0.00 0.00 0.00 66 1012.0
20260504025827 62 0 0.0 2.0 0.00 0.00 0.00 65 1012.0
20260504025758 62 0 0.0 2.0 0.00 0.00 0.00 65 1012.0
20260504025620 62 292 0.0 0.0 0.00 0.00 0.00 66 1011.9
20260504025434 62 292 0.0 0.0 0.00 0.00 0.00 66 1012.0
20260504025250 62 292 0.0 0.0 0.00 0.00 0.00 65 1012.0
20260504025108 62 292 0.0 2.0 0.00 0.00 0.00 64 1012.1
20260504024931 62 292 0.0 2.0 0.00 0.00 0.00 63 1012.0
20260504024745 62 292 0.0 2.0 0.00 0.00 0.00 64 1012.1
20260504024551 62 292 0.0 2.0 0.00 0.00 0.00 64 1012.1
20260504024410 62 292 0.0 0.0 0.00 0.00 0.00 63 1012.0
20260504024220 62 292 0.0 0.0 0.00 0.00 0.00 63 1011.9
20260504024025 62 292 0.0 2.0 0.00 0.00 0.00 62 1011.9
20260504023936 62 292 0.0 2.0 0.00 0.00 0.00 62 1011.9
20260504023844 62 292 1.0 2.0 0.00 0.00 0.00 62 1012.0
20260504023705 62 292 1.0 2.0 0.00 0.00 0.00 62 1012.0
20260504023512 62 292 1.0 2.0 0.00 0.00 0.00 62 1012.0
20260504023320 63 248 1.0 2.0 0.00 0.00 0.00 61 1012.0
20260504023125 63 248 1.0 2.0 0.00 0.00 0.00 61 1012.1
20260504022938 63 248 1.0 3.0 0.00 0.00 0.00 61 1012.0
20260504022755 63 270 1.0 3.0 0.00 0.00 0.00 61 1012.0
20260504022605 63 270 2.0 3.0 0.00 0.00 0.00 61 1012.1
20260504022405 63 270 2.0 3.0 0.00 0.00 0.00 61 1012.1
20260504022210 63 270 2.0 3.0 0.00 0.00 0.00 60 1012.1
20260504022137 63 248 2.0 3.0 0.00 0.00 0.00 60 1012.1
20260504022010 63 248 2.0 3.0 0.00 0.00 0.00 60 1012.1
20260504021827 63 248 2.0 3.0 0.00 0.00 0.00 60 1012.0
20260504021648 63 248 2.0 3.0 0.00 0.00 0.00 60 1012.1
20260504021450 63 248 2.0 3.0 0.00 0.00 0.00 59 1012.0
20260504021249 63 248 2.0 4.0 0.00 0.00 0.00 59 1012.1
20260504021050 63 270 2.0 3.0 0.00 0.00 0.00 58 1012.1
20260504020905 63 248 2.0 3.0 0.00 0.00 0.00 58 1012.1
20260504020710 63 248 2.0 3.0 0.00 0.00 0.00 58 1012.0
20260504020518 63 248 2.0 3.0 0.00 0.00 0.00 57 1011.9
20260504020320 63 248 2.0 3.0 0.00 0.00 0.00 57 1012.0
20260504020301 63 270 1.0 3.0 0.00 0.00 0.00 57 1012.1
20260504020135 63 225 1.0 3.0 0.00 0.00 0.00 57 1011.9
20260504015945 64 225 1.0 3.0 0.00 0.00 0.00 57 1011.8
20260504015805 64 225 1.0 3.0 0.00 0.00 0.00 57 1011.8
20260504015615 64 225 0.0 2.0 0.00 0.00 0.00 56 1011.8
20260504015440 64 225 0.0 2.0 0.00 0.00 0.00 56 1011.8
20260504015300 64 270 0.0 0.0 0.00 0.00 0.00 57 1011.8
20260504015111 64 270 0.0 0.0 0.00 0.00 0.00 56 1011.7
20260504014915 64 270 1.0 2.0 0.00 0.00 0.00 56 1011.8
20260504014714 64 270 1.0 2.0 0.00 0.00 0.00 56 1011.7
20260504014650 64 270 1.0 3.0 0.00 0.00 0.00 56 1011.8
20260504014525 64 270 2.0 3.0 0.00 0.00 0.00 55 1011.8
20260504014333 64 270 2.0 3.0 0.00 0.00 0.00 55 1011.8
20260504014140 64 270 2.0 3.0 0.00 0.00 0.00 55 1011.9
20260504013950 64 270 2.0 3.0 0.00 0.00 0.00 55 1011.9
20260504013805 64 270 2.0 5.0 0.00 0.00 0.00 55 1011.8
20260504013605 64 292 2.0 5.0 0.00 0.00 0.00 55 1011.8
20260504013405 64 248 2.0 5.0 0.00 0.00 0.00 54 1011.8
20260504013210 64 270 2.0 5.0 0.00 0.00 0.00 54 1011.8
20260504013025 64 292 2.0 5.0 0.00 0.00 0.00 54 1011.8
20260504012851 64 248 2.0 5.0 0.00 0.00 0.00 54 1011.8
20260504012825 64 270 2.0 5.0 0.00 0.00 0.00 54 1011.8
20260504012639 64 248 1.0 3.0 0.00 0.00 0.00 55 1011.8
20260504012500 64 248 1.0 3.0 0.00 0.00 0.00 55 1011.8
20260504012315 64 248 1.0 3.0 0.00 0.00 0.00 55 1011.8
20260504012118 64 270 0.0 2.0 0.00 0.00 0.00 55 1011.7
20260504011934 64 270 0.0 2.0 0.00 0.00 0.00 55 1011.7
20260504011745 64 270 0.0 2.0 0.00 0.00 0.00 55 1011.6
20260504011544 64 270 0.0 2.0 0.00 0.00 0.00 55 1011.6
20260504011400 64 270 0.0 2.0 0.00 0.00 0.00 56 1011.5
20260504011251 64 270 0.0 2.0 0.00 0.00 0.00 55 1011.5
20260504011218 64 270 0.0 2.0 0.00 0.00 0.00 55 1011.5
20260504011020 64 292 0.0 2.0 0.00 0.00 0.00 56 1011.5
20260504010843 64 292 0.0 2.0 0.00 0.00 0.00 55 1011.5
20260504010700 64 292 1.0 2.0 0.00 0.00 0.00 54 1011.5
20260504010514 64 292 1.0 3.0 0.00 0.00 0.00 55 1011.5
20260504010325 64 292 1.0 3.0 0.00 0.00 0.00 55 1011.5
20260504010135 64 292 1.0 3.0 0.00 0.00 0.00 55 1011.5
20260504005948 64 292 1.0 2.0 0.00 0.00 0.00 55 1011.5
20260504005748 65 292 1.0 1.0 0.00 0.00 0.00 55 1011.4
20260504005600 65 292 1.0 2.0 0.00 0.00 0.00 54 1011.5
20260504005517 65 292 1.0 2.0 0.00 0.00 0.00 54 1011.5
20260504005218 65 292 1.0 2.0 0.00 0.00 0.00 54 1011.5
20260504005031 65 292 1.0 2.0 0.00 0.00 0.00 53 1011.5
20260504004849 65 292 1.0 2.0 0.00 0.00 0.00 53 1011.5
20260504004710 65 270 1.0 2.0 0.00 0.00 0.00 52 1011.6
20260504004518 65 270 1.0 2.0 0.00 0.00 0.00 51 1011.5
20260504004339 66 270 1.0 3.0 0.00 0.00 0.00 51 1011.5
20260504004145 66 270 1.0 3.0 0.00 0.00 0.00 50 1011.4
20260504003947 66 270 1.0 3.0 0.00 0.00 0.00 50 1011.4
20260504003748 66 270 0.0 1.0 0.00 0.00 0.00 49 1011.4
20260504003654 66 270 0.0 2.0 0.00 0.00 0.00 49 1011.5
20260504003555 66 270 0.0 2.0 0.00 0.00 0.00 49 1011.4
20260504003419 66 270 0.0 2.0 0.00 0.00 0.00 49 1011.4
20260504003240 66 270 0.0 2.0 0.00 0.00 0.00 49 1011.4
20260504003050 66 0 0.0 1.0 0.00 0.00 0.00 50 1011.4
20260504002910 66 0 0.0 1.0 0.00 0.00 0.00 50 1011.3
20260504002712 66 0 0.0 1.0 0.00 0.00 0.00 50 1011.4
20260504002514 66 270 0.0 1.0 0.00 0.00 0.00 50 1011.3
20260504002318 66 270 0.0 0.0 0.00 0.00 0.00 49 1011.3
20260504002125 67 270 0.0 2.0 0.00 0.00 0.00 49 1011.2